Flag for Netherlands Weather past 2 weeks in Amersfoort, Netherlands

Now
57 °F

Cool.


Feels Like: 56 °F
Forecast: 49 / 56 °F
Wind: 6 mph from West

Location: Deelen

Current Time: May 24, 2015 at 11:26:01 AM

Latest Report: May 24, 2015 at 10:55 AM


Visibility: N/A

Pressure: 30.12 "Hg

Humidity: 63%

Dew point: 45 °F

Location of AmersfoortLocation

Historic Weather in Amersfoort — Graph

°F

Amersfoort temperature yesterday

Maximum temperature yesterday: 61 °F (at 4:25 PM)
Minimum temperature yesterday: 46 °F (at 11:25 PM)
Average temperature yesterday: 55 °F

Past Weeks' High & Low Weather Summary

 TemperatureHumidityPressure
High77 °F (May 11, 2:55 PM)100% (May 13, 4:55 AM)30.33 "Hg (May 13, 4:55 AM)
Low34 °F (May 21, 5:55 AM)34% (May 11, 3:25 PM)29.59 "Hg (May 19, 2:25 AM)
Average53 °F72%30.07 "Hg
* Reported May 9 10:25 AM — May 24 10:25 AM, Amersfoort, Weather by CustomWeather, © 2015

Note: Actual official high and low records may vary slightly from our data, if they occured in-between our weather recording intervals... More about our weather records

Advertising

Amersfoort weather history for previous 24 hours

 ConditionsComfort  
Time TempWeatherWind HumidityBarometerVisibility
10:25 AM
Sun, May 24
57 °FPassing clouds.2 mph59%30.12 "HgN/A
9:55 AM55 °FCool.1 mph63%30.12 "HgN/A
9:25 AM55 °FCool.3 mph63%30.12 "HgN/A
8:55 AM52 °FPassing clouds.3 mph72%30.15 "HgN/A
8:25 AM50 °FPassing clouds.5 mph76%30.15 "HgN/A
7:55 AM48 °FCool.5 mph76%30.15 "HgN/A
7:25 AM46 °FPassing clouds.2 mph82%30.15 "HgN/A
6:55 AM43 °FQuite cool.1 mph87%30.15 "HgN/A
6:25 AM39 °FPassing clouds.1 mph93%30.15 "HgN/A
5:55 AM41 °FPassing clouds.1 mph87%30.15 "HgN/A
5:25 AM39 °FPassing clouds.1 mph93%30.15 "HgN/A
4:55 AM41 °FPassing clouds.No wind93%30.15 "HgN/A
4:25 AM41 °FOvercast.2 mph93%30.15 "HgN/A
3:55 AM43 °FPassing clouds.1 mph87%30.15 "HgN/A
3:25 AM43 °FPassing clouds.No wind87%30.15 "HgN/A
2:55 AM43 °FPassing clouds.2 mph87%30.18 "HgN/A
2:25 AM43 °FQuite cool.3 mph87%30.18 "HgN/A
1:55 AM41 °FPassing clouds.3 mph93%30.18 "HgN/A
1:25 AM41 °FPassing clouds.2 mph87%30.18 "HgN/A
12:55 AM43 °FPassing clouds.3 mph87%30.18 "HgN/A
12:25 AM46 °FPassing clouds.2 mph82%30.21 "HgN/A
11:55 PM
Sat, May 23
46 °FPassing clouds.3 mph82%30.18 "HgN/A
11:25 PM46 °FCool.6 mph82%30.21 "HgN/A
10:55 PM48 °FPassing clouds.6 mph76%30.18 "HgN/A
10:25 PM50 °FPartly sunny.7 mph76%30.18 "HgN/A
9:55 PM52 °FPassing clouds.7 mph72%30.18 "HgN/A
9:25 PM54 °FPassing clouds.8 mph67%30.18 "HgN/A
8:55 PM55 °FPassing clouds.8 mph63%30.18 "HgN/A
8:25 PM57 °FPassing clouds.10 mph63%30.15 "HgN/A
7:55 PM59 °FMostly cloudy.7 mph59%30.15 "HgN/A
7:25 PM57 °FOvercast.9 mph63%30.15 "HgN/A
6:55 PM59 °FMore clouds than sun.9 mph63%30.15 "HgN/A
6:25 PM59 °FMostly cloudy.10 mph63%30.15 "HgN/A
5:55 PM59 °FOvercast.10 mph63%30.15 "HgN/A
5:25 PM59 °FOvercast.9 mph63%30.18 "HgN/A
4:55 PM59 °FPassing clouds.10 mph59%30.18 "HgN/A
4:25 PM61 °FMostly cloudy.12 mph59%30.18 "HgN/A
3:55 PM59 °FPartly sunny.9 mph68%30.18 "HgN/A
3:25 PM59 °FBroken clouds.12 mph72%30.18 "HgN/A
2:55 PM55 °FMostly cloudy.12 mph82%30.18 "HgN/A
2:25 PM54 °FLow clouds.12 mph88%30.18 "HgN/A
1:55 PM54 °FBroken clouds.10 mph88%30.18 "HgN/A
1:25 PM52 °FMostly cloudy.13 mph94%30.21 "HgN/A
12:55 PM52 °FMostly cloudy.13 mph100%30.21 "HgN/A
12:25 PM54 °FDrizzle. Mostly cloudy.10 mph94%30.18 "HgN/A
11:55 AM54 °FDrizzle. Broken clouds.13 mph94%30.18 "Hg3 mi
11:25 AM55 °FDrizzle. Broken clouds.8 mph94%30.18 "Hg3 mi
Weather by CustomWeather, © 2015

See weather overviewHow to use our weather pages